Alexander City, AL

10:21 AM CST on December 12, 2019 (GMT -0600)
Russell

Weather History for KALX - October, 2019

Change the Weather History Date:

Saturday, October 19, 2019

  Actual Average (WUND) Record (WUND)
Temperature  
Mean Temperature 57 °F -  
Max Temperature 59 °F - - (-1)
Min Temperature 55 °F - - (-1)
Degree Days  
Heating Degree Days 8    
Growing Degree Days 7 (Base 50)    
Moisture  
Dew Point 56 °F    
Average Humidity 92    
Maximum Humidity 97    
Minimum Humidity 71    
Precipitation  
Precipitation 1.54 in - - ()
Sea Level Pressure  
Sea Level Pressure 29.80 in    
Wind  
Wind Speed 5 mph (NE)    
Max Wind Speed 12 mph    
Max Gust Speed 18 mph    
Visibility 8 miles    
Events Rain , Thunderstorm    
Averages and records for this station are not official NWS values.
T = Trace of Precipitation, MM = Missing Value Source: NWS Daily Summary

Daily Weather History Graph

Daily Weather History Graph

Search for Another Location

Airport or City:

Astronomy

Oct. 19, 2019 Rise Set
Actual Time 6:50 AM CDT 6:06 PM CDT
Civil Twilight 6:25 AM CDT 6:31 PM CDT
Nautical Twilight 5:57 AM CDT 6:59 PM CDT
Astronomical Twilight 5:28 AM CDT 7:28 PM CDT
Moon 10:27 PM CDT (10/19) 12:09 PM CDT (10/19)
Length of Visible Light 12h 05m
Length of Day
11h 15m
Waning Gibbous, 69% of the Moon is Illuminated
Oct 19
Waning Gibbous
Oct 21
Last Quarter
Oct 27
New
Nov 4
First Quarter
Nov 12
Full

Hourly Weather History & Observations

Time (CDT) Temp. Dew Point Humidity Pressure Visibility Wind Dir Wind Speed Gust Speed Precip Events Conditions
12:15 AM 58.5 °F 49.1 °F 71% 29.90 in 10.0 mi East 3.5 mph - N/A   Mostly Cloudy
12:35 AM 58.5 °F 49.3 °F 72% 29.89 in 10.0 mi ENE 3.5 mph - N/A   Scattered Clouds
12:55 AM 58.5 °F 49.6 °F 72% 29.89 in 10.0 mi ENE 3.5 mph - N/A   Clear
1:15 AM 58.3 °F 49.3 °F 72% 29.87 in 10.0 mi East 3.5 mph - N/A   Clear
1:35 AM 58.6 °F 49.3 °F 71% 29.87 in 10.0 mi East 3.5 mph - N/A   Scattered Clouds
1:55 AM 59.0 °F 50.2 °F 73% 29.86 in 10.0 mi East 3.5 mph - N/A   Clear
2:15 AM 59.0 °F 50.0 °F 72% 29.86 in 10.0 mi ENE 3.5 mph - N/A   Clear
2:35 AM 58.6 °F 50.4 °F 74% 29.86 in 10.0 mi East 4.6 mph - N/A   Clear
2:55 AM 59.0 °F 51.1 °F 75% 29.86 in 10.0 mi Calm Calm - N/A   Clear
3:15 AM 59.0 °F 51.3 °F 75% 29.85 in 10.0 mi NE 3.5 mph - N/A   Scattered Clouds
3:35 AM 58.6 °F 51.8 °F 78% 29.85 in 10.0 mi ENE 3.5 mph - N/A   Clear
3:55 AM 58.6 °F 52.2 °F 79% 29.85 in 10.0 mi Calm Calm - N/A   Scattered Clouds
4:15 AM 58.3 °F 54.0 °F 86% 29.85 in 7.0 mi East 3.5 mph - N/A Rain Rain
4:35 AM 57.7 °F 55.4 °F 92% 29.85 in 7.0 mi NE 3.5 mph - N/A   Drizzle
4:55 AM 57.2 °F 55.6 °F 94% 29.85 in 5.0 mi ENE 3.5 mph - 0.01 in   Drizzle
5:15 AM 57.6 °F 56.5 °F 96% 29.85 in 10.0 mi ENE 4.6 mph - N/A   Overcast
5:35 AM 58.1 °F 56.8 °F 96% 29.85 in 7.0 mi ENE 4.6 mph - 0.01 in Rain Light Rain
5:55 AM 58.1 °F 57.2 °F 97% 29.84 in 10.0 mi ENE 4.6 mph - 0.01 in   Overcast
6:15 AM 58.5 °F 57.4 °F 96% 29.84 in 10.0 mi ENE 4.6 mph - N/A   Drizzle
6:35 AM 58.5 °F 57.4 °F 96% 29.84 in 7.0 mi ENE 6.9 mph - N/A   Drizzle
6:55 AM 58.6 °F 57.6 °F 96% 29.84 in 7.0 mi ENE 4.6 mph - N/A   Overcast
7:15 AM 59.0 °F 57.7 °F 96% 29.84 in 10.0 mi ENE 8.1 mph - N/A   Overcast
7:35 AM 59.0 °F 57.7 °F 96% 29.84 in 10.0 mi ENE 6.9 mph - N/A   Overcast
7:55 AM 59.0 °F 57.7 °F 96% 29.84 in 10.0 mi ENE 3.5 mph - N/A   Overcast
8:15 AM 59.0 °F 57.7 °F 96% 29.84 in 10.0 mi ENE 9.2 mph - N/A   Overcast
8:35 AM 59.4 °F 58.1 °F 96% 29.85 in 7.0 mi ENE 6.9 mph - N/A Rain Light Rain
8:55 AM 59.4 °F 58.1 °F 96% 29.85 in 10.0 mi ENE 6.9 mph - N/A Rain Light Rain
9:15 AM 59.4 °F 58.1 °F 96% 29.85 in 5.0 mi ENE 10.4 mph 18.4 mph 0.01 in Rain Light Rain
9:35 AM 59.4 °F 58.3 °F 96% 29.84 in 5.0 mi ENE 8.1 mph 16.1 mph 0.04 in Rain Rain
9:55 AM 59.7 °F 58.5 °F 96% 29.82 in 7.0 mi ENE 9.2 mph 16.1 mph 0.07 in Rain Light Rain
10:15 AM 59.7 °F 58.5 °F 96% 29.82 in 10.0 mi NE 9.2 mph - 0.01 in Rain Light Rain
10:35 AM 59.9 °F 58.3 °F 94% 29.83 in 10.0 mi ENE 9.2 mph 17.3 mph 0.01 in Rain Light Rain
10:55 AM 59.4 °F 58.3 °F 96% 29.82 in 2.5 mi ENE 9.2 mph - 0.13 in Rain Rain
11:15 AM 59.0 °F 58.1 °F 97% 29.82 in 2.5 mi ENE 8.1 mph - 0.10 in Rain Heavy Rain
11:35 AM 59.0 °F 58.1 °F 97% 29.81 in 1.8 mi NE 8.1 mph - 0.37 in Rain Heavy Rain
11:55 AM 59.0 °F 57.7 °F 96% 29.80 in 4.0 mi NNE 10.4 mph 16.1 mph 0.49 in Rain Rain
12:15 PM 59.2 °F 58.1 °F 96% 29.80 in 7.0 mi North 9.2 mph - 0.04 in Rain Rain
12:35 PM 59.4 °F 58.1 °F 96% 29.78 in 4.0 mi NNE 6.9 mph - 0.23 in Rain Heavy Rain
12:55 PM 59.4 °F 57.7 °F 94% 29.78 in 5.0 mi NNE 8.1 mph - 0.28 in Rain Rain
1:15 PM 59.4 °F 58.1 °F 96% 29.77 in 5.0 mi North 5.8 mph - 0.10 in Rain Rain
1:35 PM 59.0 °F 57.7 °F 96% 29.77 in 5.0 mi North 8.1 mph - 0.20 in Rain Rain
1:55 PM 59.2 °F 57.9 °F 96% 29.76 in 5.0 mi North 8.1 mph - 0.23 in Rain Rain
2:15 PM 59.0 °F 57.7 °F 96% 29.75 in 5.0 mi North 8.1 mph - 0.02 in Rain Rain
2:35 PM 58.5 °F 57.2 °F 96% 29.75 in 5.0 mi NNE 8.1 mph - 0.12 in Rain Rain
2:55 PM 58.5 °F 57.2 °F 96% 29.74 in 4.0 mi North 8.1 mph - 0.18 in Rain , Thunderstorm Rain
3:15 PM 58.5 °F 57.2 °F 96% 29.74 in 10.0 mi North 9.2 mph - 0.01 in   Drizzle
3:35 PM 58.6 °F 57.2 °F 95% 29.74 in 7.0 mi North 6.9 mph - 0.02 in Rain Light Rain
3:55 PM 58.3 °F 57.0 °F 96% 29.73 in 7.0 mi North 11.5 mph - 0.03 in Rain , Thunderstorm Rain
4:15 PM 58.1 °F 56.7 °F 95% 29.73 in 7.0 mi North 11.5 mph - 0.01 in Rain Light Rain
4:35 PM 58.1 °F 56.3 °F 94% 29.73 in 7.0 mi NNE 10.4 mph - 0.01 in Rain Rain
4:55 PM 57.7 °F 56.3 °F 95% 29.73 in 7.0 mi NNE 8.1 mph - 0.02 in   Light Drizzle
5:15 PM 57.6 °F 55.9 °F 94% 29.73 in 10.0 mi NNE 9.2 mph 16.1 mph N/A Rain Light Rain
5:35 PM 57.4 °F 55.8 °F 94% 29.74 in 7.0 mi NNE 10.4 mph - N/A   Light Drizzle
5:55 PM 57.4 °F 55.8 °F 94% 29.75 in 7.0 mi NNE 5.8 mph - N/A   Drizzle
6:15 PM 57.2 °F 55.8 °F 95% 29.75 in 5.0 mi NNE 5.8 mph - N/A   Drizzle
6:35 PM 57.2 °F 55.8 °F 95% 29.75 in 7.0 mi NNE 8.1 mph - 0.01 in Thunderstorm Drizzle
6:55 PM 57.2 °F 55.8 °F 95% 29.76 in 5.0 mi North 6.9 mph - 0.02 in   Heavy Drizzle
7:15 PM 57.2 °F 55.9 °F 96% 29.76 in 7.0 mi North 6.9 mph - 0.01 in   Drizzle
7:35 PM 57.2 °F 55.9 °F 96% 29.76 in 5.0 mi NNE 6.9 mph - 0.04 in Rain , Thunderstorm Rain
7:55 PM 56.8 °F 55.6 °F 96% 29.76 in 7.0 mi NNE 6.9 mph - 0.06 in Rain Rain
8:15 PM 56.7 °F 55.6 °F 96% 29.76 in 10.0 mi NNE 5.8 mph - 0.01 in   Light Drizzle
8:35 PM 56.7 °F 55.4 °F 96% 29.76 in 10.0 mi North 4.6 mph - 0.01 in   Mostly Cloudy
8:55 PM 56.7 °F 55.0 °F 94% 29.77 in 10.0 mi NNW 5.8 mph - 0.01 in   Overcast
9:35 PM 56.3 °F 54.7 °F 94% 29.78 in 10.0 mi NNW 6.9 mph - N/A   Mostly Cloudy
9:55 PM 56.3 °F 54.5 °F 94% 29.78 in 10.0 mi North 4.6 mph - N/A   Overcast
10:15 PM 55.9 °F 54.5 °F 95% 29.78 in 10.0 mi North 4.6 mph - N/A   Mostly Cloudy
10:35 PM 56.3 °F 54.7 °F 94% 29.78 in 10.0 mi North 3.5 mph - N/A   Overcast
10:55 PM 55.9 °F 54.5 °F 95% 29.79 in 10.0 mi NNW 3.5 mph - N/A   Overcast
11:15 PM 55.8 °F 54.5 °F 96% 29.79 in 10.0 mi Calm Calm - N/A   Overcast
11:35 PM 55.4 °F 54.5 °F 97% 29.79 in 10.0 mi Calm Calm - N/A   Overcast
11:55 PM 55.6 °F 54.5 °F 96% 29.79 in 10.0 mi NW 3.5 mph - N/A   Overcast